Wetterstation Vettwei-Soller: Standort 50 43' 54" Nord - 6 33' 24" Ost
Wetterdaten: aktuell Mittwoch, 08.04.2020 03:30
Datum Zeit Temp. A. Temp. A. min Temp. A. max Feuchte A. Luftdruck Regen Wind Richtung Richtung Sonnenschein Zeit Regen ET UV Solar Taupunkt Windchill Windben
08.04.2020 03:30 8,7 C 8,6 C 8,8 C 83 % 1027,7 hPa 0,0 l/m 4,3 km/h (1 Bft) W-SW 246 0 min 0 min 0,000 mm 0,0 UV-I 0 W/m 6,0 C 8,7 C 6,4 km/h (2 Bft)
08.04.2020 03:15 8,8 C 8,4 C 8,8 C 83 % 1027,9 hPa 0,0 l/m 4,0 km/h (1 Bft) W-SW 246 0 min 0 min 0,000 mm 0,0 UV-I 0 W/m 6,1 C 8,8 C 6,4 km/h (2 Bft)
08.04.2020 03:00 8,5 C 8,4 C 8,7 C 84 % 1028,0 hPa 0,0 l/m 3,3 km/h (1 Bft) W-SW 246 0 min 0 min 0,025 mm 0,0 UV-I 0 W/m 6,0 C 8,5 C 4,8 km/h (1 Bft)
08.04.2020 02:45 8,7 C 8,7 C 8,8 C 83 % 1028,0 hPa 0,0 l/m 3,2 km/h (1 Bft) W-SW 246 0 min 0 min 0,000 mm 0,0 UV-I 0 W/m 6,0 C 8,7 C 4,8 km/h (1 Bft)
08.04.2020 02:30 8,8 C 8,8 C 9,4 C 83 % 1028,2 hPa 0,0 l/m 3,1 km/h (1 Bft) W-SW 246 0 min 0 min 0,000 mm 0,0 UV-I 0 W/m 6,1 C 8,8 C 4,8 km/h (1 Bft)
08.04.2020 02:15 9,4 C 9,0 C 9,4 C 83 % 1028,4 hPa 0,0 l/m 3,0 km/h (1 Bft) W-SW 246 0 min 0 min 0,000 mm 0,0 UV-I 0 W/m 6,7 C 9,4 C 4,8 km/h (1 Bft)
08.04.2020 02:00 9,0 C 8,9 C 9,2 C 84 % 1028,5 hPa 0,0 l/m 2,7 km/h (1 Bft) W-SW 246 0 min 0 min 0,026 mm 0,0 UV-I 0 W/m 6,4 C 9,0 C 4,8 km/h (1 Bft)
08.04.2020 01:45 9,2 C 9,1 C 9,2 C 84 % 1028,5 hPa 0,0 l/m 3,0 km/h (1 Bft) W-SW 246 0 min 0 min 0,000 mm 0,0 UV-I 0 W/m 6,6 C 9,2 C 4,8 km/h (1 Bft)
08.04.2020 01:30 9,1 C 9,1 C 9,7 C 83 % 1028,5 hPa 0,0 l/m 3,0 km/h (1 Bft) W-SW 246 0 min 0 min 0,000 mm 0,0 UV-I 0 W/m 6,4 C 9,1 C 4,8 km/h (1 Bft)
08.04.2020 01:15 9,6 C 9,4 C 9,7 C 84 % 1028,6 hPa 0,0 l/m 3,6 km/h (1 Bft) W-SW 246 0 min 0 min 0,025 mm 0,0 UV-I 0 W/m 7,0 C 9,6 C 4,8 km/h (1 Bft)
08.04.2020 01:00 9,7 C 9,5 C 9,7 C 83 % 1028,6 hPa 0,0 l/m 3,2 km/h (1 Bft) W-SW 246 0 min 0 min 0,000 mm 0,0 UV-I 0 W/m 7,0 C 9,7 C 4,8 km/h (1 Bft)
08.04.2020 00:45 9,7 C 9,7 C 10,1 C 83 % 1028,6 hPa 0,0 l/m 2,9 km/h (1 Bft) W-SW 246 0 min 0 min 0,000 mm 0,0 UV-I 0 W/m 7,0 C 9,7 C 4,8 km/h (1 Bft)
08.04.2020 00:30 10,1 C 10,1 C 10,4 C 82 % 1028,6 hPa 0,0 l/m 3,3 km/h (1 Bft) W-SW 246 0 min 0 min 0,000 mm 0,0 UV-I 0 W/m 7,2 C 10,1 C 4,8 km/h (1 Bft)
08.04.2020 00:15 10,4 C 10,3 C 10,6 C 81 % 1028,6 hPa 0,0 l/m 3,2 km/h (1 Bft) W-SW 246 0 min 0 min 0,000 mm 0,0 UV-I 0 W/m 7,3 C 10,4 C 6,4 km/h (2 Bft)
08.04.2020 00:00 10,5 C 10,5 C 10,7 C 81 % 1028,7 hPa 0,0 l/m 3,3 km/h (1 Bft) W-SW 246 0 min 0 min 0,000 mm 0,0 UV-I 0 W/m 7,4 C 10,5 C 4,8 km/h (1 Bft)
07.04.2020 23:45 10,7 C 10,7 C 11,1 C 80 % 1028,8 hPa 0,0 l/m 3,5 km/h (1 Bft) W-SW 246 0 min 0 min 0,000 mm 0,0 UV-I 0 W/m 7,4 C 10,7 C 4,8 km/h (1 Bft)
07.04.2020 23:30 11,1 C 11,1 C 11,4 C 78 % 1028,8 hPa 0,0 l/m 3,5 km/h (1 Bft) W-SW 246 0 min 0 min 0,000 mm 0,0 UV-I 0 W/m 7,4 C 11,1 C 6,4 km/h (2 Bft)
07.04.2020 23:15 11,4 C 11,3 C 11,6 C 77 % 1028,9 hPa 0,0 l/m 3,6 km/h (1 Bft) W 277 0 min 0 min 0,000 mm 0,0 UV-I 0 W/m 7,5 C 11,4 C 4,8 km/h (1 Bft)
07.04.2020 23:00 11,4 C 11,3 C 11,6 C 76 % 1029,0 hPa 0,0 l/m 3,2 km/h (1 Bft) W 277 0 min 0 min 0,026 mm 0,0 UV-I 0 W/m 7,3 C 11,4 C 4,8 km/h (1 Bft)
07.04.2020 22:45 11,6 C 11,6 C 12,1 C 76 % 1029,1 hPa 0,0 l/m 2,9 km/h (1 Bft) W 277 0 min 0 min 0,000 mm 0,0 UV-I 0 W/m 7,5 C 11,6 C 4,8 km/h (1 Bft)
07.04.2020 22:30 12,1 C 11,9 C 12,2 C 74 % 1029,1 hPa 0,0 l/m 2,5 km/h (1 Bft) W 277 0 min 0 min 0,000 mm 0,0 UV-I 0 W/m 7,6 C 12,1 C 4,8 km/h (1 Bft)
07.04.2020 22:15 12,2 C 12,2 C 12,6 C 73 % 1029,1 hPa 0,0 l/m 2,3 km/h (1 Bft) W 277 0 min 0 min 0,025 mm 0,0 UV-I 0 W/m 7,5 C 12,2 C 4,8 km/h (1 Bft)
07.04.2020 22:00 12,5 C 12,5 C 12,8 C 72 % 1029,0 hPa 0,0 l/m 2,7 km/h (1 Bft) W 277 0 min 0 min 0,000 mm 0,0 UV-I 0 W/m 7,6 C 12,5 C 4,8 km/h (1 Bft)
07.04.2020 21:45 12,7 C 12,6 C 12,9 C 72 % 1029,0 hPa 0,0 l/m 2,9 km/h (1 Bft) W 277 0 min 0 min 0,000 mm 0,0 UV-I 0 W/m 7,8 C 12,7 C 4,8 km/h (1 Bft)
07.04.2020 21:30 12,9 C 12,9 C 13,6 C 71 % 1028,9 hPa 0,0 l/m 2,4 km/h (1 Bft) NO 42 0 min 0 min 0,000 mm 0,0 UV-I 0 W/m 7,8 C 12,9 C 4,8 km/h (1 Bft)
07.04.2020 21:15 13,6 C 13,6 C 13,8 C 69 % 1028,9 hPa 0,0 l/m 2,5 km/h (1 Bft) NO 42 0 min 0 min 0,026 mm 0,0 UV-I 0 W/m 8,0 C 13,6 C 4,8 km/h (1 Bft)
07.04.2020 21:00 13,7 C 13,7 C 14,6 C 70 % 1028,8 hPa 0,0 l/m 1,9 km/h (1 Bft) NO 42 0 min 0 min 0,000 mm 0,0 UV-I 0 W/m 8,3 C 13,7 C 3,2 km/h (1 Bft)
07.04.2020 20:45 14,6 C 14,6 C 15,8 C 68 % 1028,8 hPa 0,0 l/m 1,6 km/h (1 Bft) NO 42 0 min 0 min 0,000 mm 0,0 UV-I 0 W/m 8,8 C 14,6 C 3,2 km/h (1 Bft)
07.04.2020 20:30 15,8 C 15,8 C 17,3 C 64 % 1028,7 hPa 0,0 l/m 1,1 km/h (1 Bft) NO 42 0 min 0 min 0,000 mm 0,0 UV-I 0 W/m 9,0 C 15,8 C 3,2 km/h (1 Bft)
07.04.2020 20:15 17,3 C 17,3 C 17,9 C 58 % 1028,6 hPa 0,0 l/m 0,1 km/h (0 Bft) NO 42 0 min 0 min 0,050 mm 0,0 UV-I 0 W/m 9,0 C 17,3 C 3,2 km/h (1 Bft)
07.04.2020 20:00 17,9 C 17,9 C 18,8 C 55 % 1028,5 hPa 0,0 l/m 1,3 km/h (1 Bft) NO 42 0 min 0 min 0,000 mm 0,0 UV-I 11 W/m 8,7 C 17,9 C 4,8 km/h (1 Bft)
07.04.2020 19:45 18,8 C 18,8 C 19,3 C 53 % 1028,5 hPa 0,0 l/m 2,6 km/h (1 Bft) NO 49 0 min 0 min 0,000 mm 0,0 UV-I 18 W/m 9,0 C 18,8 C 6,4 km/h (2 Bft)
07.04.2020 19:30 19,2 C 19,2 C 19,6 C 51 % 1028,6 hPa 0,0 l/m 4,4 km/h (1 Bft) NO 49 0 min 0 min 0,000 mm 0,0 UV-I 26 W/m 8,8 C 19,2 C 8,0 km/h (2 Bft)
07.04.2020 19:15 19,6 C 19,6 C 19,9 C 50 % 1028,6 hPa 0,0 l/m 4,7 km/h (1 Bft) O-NO 60 0 min 0 min 0,153 mm 0,0 UV-I 33 W/m 8,9 C 19,6 C 9,7 km/h (2 Bft)
07.04.2020 19:00 19,9 C 19,9 C 20,2 C 49 % 1028,6 hPa 0,0 l/m 5,3 km/h (1 Bft) O-NO 61 0 min 0 min 0,000 mm 0,0 UV-I 40 W/m 8,9 C 19,9 C 12,9 km/h (3 Bft)
07.04.2020 18:45 20,2 C 20,2 C 20,5 C 49 % 1028,8 hPa 0,0 l/m 5,7 km/h (1 Bft) N-NO 22 15 min 0 min 0,000 mm 0,0 UV-I 151 W/m 9,1 C 20,2 C 9,7 km/h (2 Bft)
07.04.2020 18:30 20,5 C 20,4 C 20,7 C 49 % 1028,9 hPa 0,0 l/m 5,8 km/h (2 Bft) O-NO 57 15 min 0 min 0,000 mm 0,0 UV-I 192 W/m 9,4 C 20,5 C 14,5 km/h (3 Bft)
07.04.2020 18:15 20,7 C 20,5 C 20,8 C 48 % 1029,0 hPa 0,0 l/m 6,2 km/h (2 Bft) O-NO 75 15 min 0 min 0,254 mm 0,5 UV-I 232 W/m 9,3 C 20,7 C 11,3 km/h (2 Bft)
07.04.2020 18:00 20,8 C 20,6 C 20,8 C 47 % 1029,0 hPa 0,0 l/m 6,2 km/h (2 Bft) NO 51 15 min 0 min 0,000 mm 0,7 UV-I 272 W/m 9,1 C 20,8 C 14,5 km/h (3 Bft)
07.04.2020 17:45 20,7 C 20,6 C 20,8 C 47 % 1029,0 hPa 0,0 l/m 7,1 km/h (2 Bft) O-NO 68 15 min 0 min 0,000 mm 0,9 UV-I 309 W/m 9,0 C 20,7 C 16,1 km/h (3 Bft)
07.04.2020 17:30 20,8 C 20,8 C 21,0 C 46 % 1029,1 hPa 0,0 l/m 6,6 km/h (2 Bft) O-NO 59 15 min 0 min 0,000 mm 1,1 UV-I 350 W/m 8,8 C 20,8 C 14,5 km/h (3 Bft)
07.04.2020 17:15 20,8 C 20,7 C 21,1 C 47 % 1029,3 hPa 0,0 l/m 6,6 km/h (2 Bft) O 83 15 min 0 min 0,330 mm 1,3 UV-I 385 W/m 9,1 C 20,8 C 14,5 km/h (3 Bft)
07.04.2020 17:00 20,8 C 20,7 C 21,1 C 47 % 1029,4 hPa 0,0 l/m 6,0 km/h (2 Bft) N-NO 33 15 min 0 min 0,000 mm 1,6 UV-I 427 W/m 9,1 C 20,8 C 12,9 km/h (3 Bft)
07.04.2020 16:45 21,1 C 20,8 C 21,1 C 47 % 1029,5 hPa 0,0 l/m 6,6 km/h (2 Bft) O 94 15 min 0 min 0,000 mm 1,9 UV-I 455 W/m 9,3 C 21,1 C 17,7 km/h (3 Bft)
07.04.2020 16:30 20,8 C 20,4 C 20,8 C 47 % 1029,7 hPa 0,0 l/m 6,7 km/h (2 Bft) NO 46 15 min 0 min 0,000 mm 2,2 UV-I 489 W/m 9,1 C 20,8 C 14,5 km/h (3 Bft)
07.04.2020 16:15 20,8 C 20,4 C 20,9 C 47 % 1029,9 hPa 0,0 l/m 6,3 km/h (2 Bft) N-NO 17 15 min 0 min 0,381 mm 2,5 UV-I 519 W/m 9,1 C 20,8 C 17,7 km/h (3 Bft)
07.04.2020 16:00 20,5 C 20,3 C 20,7 C 48 % 1029,9 hPa 0,0 l/m 7,8 km/h (2 Bft) N 11 15 min 0 min 0,000 mm 2,7 UV-I 541 W/m 9,1 C 20,5 C 16,1 km/h (3 Bft)
07.04.2020 15:45 20,5 C 20,2 C 20,5 C 48 % 1030,1 hPa 0,0 l/m 6,8 km/h (2 Bft) N 5 15 min 0 min 0,000 mm 2,8 UV-I 564 W/m 9,1 C 20,5 C 17,7 km/h (3 Bft)
07.04.2020 15:30 20,3 C 19,9 C 20,6 C 47 % 1030,3 hPa 0,0 l/m 5,2 km/h (1 Bft) NO 35 15 min 0 min 0,000 mm 3,3 UV-I 487 W/m 8,6 C 20,3 C 14,5 km/h (3 Bft)
07.04.2020 15:15 20,6 C 19,7 C 20,8 C 48 % 1030,4 hPa 0,0 l/m 6,0 km/h (2 Bft) O-SO 106 15 min 0 min 0,406 mm 3,6 UV-I 621 W/m 9,2 C 20,6 C 14,5 km/h (3 Bft)
07.04.2020 15:00 19,7 C 19,5 C 20,3 C 49 % 1030,5 hPa 0,0 l/m 5,0 km/h (1 Bft) O-NO 63 15 min 0 min 0,000 mm 3,8 UV-I 638 W/m 8,7 C 19,7 C 14,5 km/h (3 Bft)
07.04.2020 14:45 19,6 C 19,3 C 20,1 C 49 % 1030,6 hPa 0,0 l/m 6,6 km/h (2 Bft) N-NO 26 15 min 0 min 0,000 mm 4,0 UV-I 663 W/m 8,6 C 19,6 C 16,1 km/h (3 Bft)
07.04.2020 14:30 19,6 C 19,1 C 19,7 C 50 % 1030,8 hPa 0,0 l/m 5,4 km/h (1 Bft) O-NO 69 15 min 0 min 0,000 mm 4,2 UV-I 680 W/m 8,9 C 19,6 C 14,5 km/h (3 Bft)
07.04.2020 14:15 19,6 C 18,7 C 19,7 C 51 % 1031,0 hPa 0,0 l/m 5,0 km/h (1 Bft) N-NO 16 15 min 0 min 0,407 mm 4,1 UV-I 684 W/m 9,2 C 19,6 C 12,9 km/h (3 Bft)
07.04.2020 14:00 19,3 C 18,5 C 19,3 C 54 % 1031,1 hPa 0,0 l/m 6,5 km/h (2 Bft) SO 127 15 min 0 min 0,000 mm 4,3 UV-I 596 W/m 9,8 C 19,3 C 14,5 km/h (3 Bft)
07.04.2020 13:45 18,7 C 18,2 C 18,9 C 57 % 1031,2 hPa 0,0 l/m 6,6 km/h (2 Bft) O 80 15 min 0 min 0,000 mm 4,4 UV-I 687 W/m 10,0 C 18,7 C 14,5 km/h (3 Bft)
07.04.2020 13:30 18,3 C 17,9 C 18,6 C 57 % 1031,4 hPa 0,0 l/m 6,0 km/h (2 Bft) N-NO 21 15 min 0 min 0,000 mm 4,3 UV-I 675 W/m 9,6 C 18,3 C 17,7 km/h (3 Bft)
07.04.2020 13:15 17,9 C 17,4 C 17,9 C 62 % 1031,5 hPa 0,0 l/m 4,2 km/h (1 Bft) O-NO 74 15 min 0 min 0,381 mm 4,1 UV-I 661 W/m 10,5 C 17,9 C 14,5 km/h (3 Bft)
07.04.2020 13:00 17,6 C 17,3 C 17,7 C 64 % 1031,6 hPa 0,0 l/m 6,1 km/h (2 Bft) O-SO 108 15 min 0 min 0,000 mm 4,1 UV-I 675 W/m 10,7 C 17,6 C 12,9 km/h (3 Bft)
07.04.2020 12:45 17,3 C 16,6 C 17,4 C 66 % 1031,7 hPa 0,0 l/m 4,6 km/h (1 Bft) O 84 15 min 0 min 0,000 mm 4,0 UV-I 664 W/m 10,9 C 17,3 C 14,5 km/h (3 Bft)
07.04.2020 12:30 16,8 C 16,3 C 17,2 C 68 % 1031,7 hPa 0,0 l/m 4,8 km/h (1 Bft) O-NO 61 15 min 0 min 0,000 mm 3,8 UV-I 638 W/m 10,9 C 16,8 C 12,9 km/h (3 Bft)
07.04.2020 12:15 16,3 C 16,0 C 16,7 C 69 % 1031,8 hPa 0,0 l/m 4,9 km/h (1 Bft) O 84 15 min 0 min 0,305 mm 3,7 UV-I 645 W/m 10,6 C 16,3 C 11,3 km/h (2 Bft)
07.04.2020 12:00 16,1 C 15,7 C 16,2 C 69 % 1032,1 hPa 0,0 l/m 4,7 km/h (1 Bft) N-NO 17 15 min 0 min 0,000 mm 3,3 UV-I 591 W/m 10,4 C 16,1 C 12,9 km/h (3 Bft)
07.04.2020 11:45 16,2 C 15,2 C 16,2 C 70 % 1032,2 hPa 0,0 l/m 5,6 km/h (1 Bft) O-SO 113 15 min 0 min 0,000 mm 3,1 UV-I 598 W/m 10,7 C 16,2 C 16,1 km/h (3 Bft)
07.04.2020 11:30 15,2 C 15,1 C 15,6 C 73 % 1032,2 hPa 0,0 l/m 5,4 km/h (1 Bft) O-NO 67 15 min 0 min 0,000 mm 3,0 UV-I 624 W/m 10,4 C 15,2 C 12,9 km/h (3 Bft)
07.04.2020 11:15 15,5 C 14,7 C 15,5 C 73 % 1032,0 hPa 0,0 l/m 4,5 km/h (1 Bft) O-NO 69 15 min 0 min 0,228 mm 2,7 UV-I 566 W/m 10,7 C 15,5 C 12,9 km/h (3 Bft)
07.04.2020 11:00 14,8 C 14,6 C 15,3 C 73 % 1032,0 hPa 0,0 l/m 4,5 km/h (1 Bft) O 83 0 min 0 min 0,000 mm 2,3 UV-I 290 W/m 10,0 C 14,8 C 12,9 km/h (3 Bft)
07.04.2020 10:45 14,7 C 14,3 C 14,9 C 74 % 1032,0 hPa 0,0 l/m 4,0 km/h (1 Bft) O 90 15 min 0 min 0,000 mm 1,8 UV-I 468 W/m 10,1 C 14,7 C 12,9 km/h (3 Bft)
07.04.2020 10:30 14,3 C 14,2 C 14,4 C 76 % 1032,0 hPa 0,0 l/m 4,8 km/h (1 Bft) NO 52 15 min 0 min 0,000 mm 1,8 UV-I 454 W/m 10,1 C 14,3 C 11,3 km/h (2 Bft)
07.04.2020 10:15 14,3 C 13,7 C 14,3 C 77 % 1031,9 hPa 0,0 l/m 4,5 km/h (1 Bft) O 90 15 min 0 min 0,127 mm 1,5 UV-I 410 W/m 10,3 C 14,3 C 9,7 km/h (2 Bft)
07.04.2020 10:00 13,7 C 13,5 C 13,7 C 78 % 1031,8 hPa 0,0 l/m 4,6 km/h (1 Bft) O-NO 64 15 min 0 min 0,000 mm 1,3 UV-I 366 W/m 9,9 C 13,7 C 9,7 km/h (2 Bft)
07.04.2020 09:45 13,7 C 13,2 C 13,8 C 78 % 1031,7 hPa 0,0 l/m 3,8 km/h (1 Bft) N-NO 30 15 min 0 min 0,000 mm 1,1 UV-I 374 W/m 9,9 C 13,7 C 11,3 km/h (2 Bft)
07.04.2020 09:30 13,2 C 12,6 C 13,2 C 79 % 1031,5 hPa 0,0 l/m 2,2 km/h (1 Bft) N 355 15 min 0 min 0,000 mm 0,9 UV-I 271 W/m 9,6 C 13,2 C 4,8 km/h (1 Bft)
07.04.2020 09:15 12,7 C 12,4 C 12,7 C 81 % 1031,6 hPa 0,0 l/m 1,6 km/h (1 Bft) NW 310 0 min 0 min 0,051 mm 0,6 UV-I 181 W/m 9,5 C 12,7 C 3,2 km/h (1 Bft)
07.04.2020 09:00 12,4 C 12,2 C 12,4 C 82 % 1031,5 hPa 0,0 l/m 1,3 km/h (1 Bft) NW 310 0 min 0 min 0,000 mm 0,5 UV-I 141 W/m 9,4 C 12,4 C 4,8 km/h (1 Bft)
07.04.2020 08:45 12,3 C 11,3 C 12,3 C 84 % 1031,4 hPa 0,0 l/m 0,9 km/h (0 Bft) W-NW 282 0 min 0 min 0,000 mm 0,0 UV-I 118 W/m 9,7 C 12,3 C 4,8 km/h (1 Bft)
07.04.2020 08:30 11,3 C 10,8 C 11,3 C 87 % 1031,3 hPa 0,0 l/m 0,6 km/h (0 Bft) W-NW 282 15 min 0 min 0,000 mm 0,0 UV-I 149 W/m 9,2 C 11,3 C 3,2 km/h (1 Bft)
07.04.2020 08:15 10,8 C 9,8 C 10,8 C 87 % 1031,1 hPa 0,0 l/m 1,2 km/h (1 Bft) W-NW 282 15 min 0 min 0,025 mm 0,0 UV-I 113 W/m 8,7 C 10,8 C 3,2 km/h (1 Bft)
07.04.2020 08:00 9,8 C 9,3 C 9,8 C 89 % 1030,9 hPa 0,0 l/m 1,9 km/h (1 Bft) W-NW 282 0 min 0 min 0,000 mm 0,0 UV-I 53 W/m 8,1 C 9,8 C 3,2 km/h (1 Bft)
07.04.2020 07:45 9,3 C 9,3 C 9,4 C 89 % 1030,7 hPa 0,0 l/m 1,7 km/h (1 Bft) W-NW 285 0 min 0 min 0,000 mm 0,0 UV-I 44 W/m 7,6 C 9,3 C 4,8 km/h (1 Bft)
07.04.2020 07:30 9,3 C 9,0 C 9,3 C 89 % 1030,5 hPa 0,0 l/m 1,9 km/h (1 Bft) W-NW 285 0 min 0 min 0,000 mm 0,0 UV-I 37 W/m 7,6 C 9,3 C 4,8 km/h (1 Bft)
07.04.2020 07:15 9,0 C 8,5 C 9,0 C 90 % 1030,4 hPa 0,0 l/m 1,2 km/h (1 Bft) W-NW 285 0 min 0 min 0,000 mm 0,0 UV-I 16 W/m 7,4 C 9,0 C 3,2 km/h (1 Bft)
07.04.2020 07:00 8,5 C 8,4 C 8,6 C 90 % 1030,3 hPa 0,0 l/m 2,2 km/h (1 Bft) W-NW 285 0 min 0 min 0,000 mm 0,0 UV-I 5 W/m 7,0 C 8,5 C 4,8 km/h (1 Bft)
07.04.2020 06:45 8,6 C 8,3 C 8,6 C 90 % 1030,1 hPa 0,0 l/m 2,4 km/h (1 Bft) W-NW 285 0 min 0 min 0,000 mm 0,0 UV-I 0 W/m 7,1 C 8,6 C 4,8 km/h (1 Bft)
07.04.2020 06:30 8,3 C 8,3 C 8,9 C 89 % 1030,0 hPa 0,0 l/m 2,4 km/h (1 Bft) W-NW 285 0 min 0 min 0,000 mm 0,0 UV-I 0 W/m 6,6 C 8,3 C 3,2 km/h (1 Bft)
07.04.2020 06:15 8,9 C 8,9 C 9,7 C 88 % 1030,0 hPa 0,0 l/m 1,8 km/h (1 Bft) W-NW 285 0 min 0 min 0,000 mm 0,0 UV-I 0 W/m 7,0 C 8,9 C 3,2 km/h (1 Bft)
07.04.2020 06:00 9,7 C 9,6 C 9,7 C 88 % 1029,9 hPa 0,0 l/m 2,0 km/h (1 Bft) W-NW 285 0 min 0 min 0,000 mm 0,0 UV-I 0 W/m 7,8 C 9,7 C 3,2 km/h (1 Bft)
07.04.2020 05:45 9,6 C 9,6 C 9,8 C 87 % 1029,9 hPa 0,0 l/m 1,2 km/h (1 Bft) W-NW 285 0 min 0 min 0,000 mm 0,0 UV-I 0 W/m 7,5 C 9,6 C 3,2 km/h (1 Bft)
07.04.2020 05:30 9,7 C 9,6 C 9,9 C 87 % 1029,7 hPa 0,0 l/m 1,8 km/h (1 Bft) W-NW 285 0 min 0 min 0,000 mm 0,0 UV-I 0 W/m 7,6 C 9,7 C 3,2 km/h (1 Bft)
07.04.2020 05:15 9,9 C 9,9 C 10,3 C 85 % 1029,5 hPa 0,0 l/m 1,4 km/h (1 Bft) W-NW 285 0 min 0 min 0,000 mm 0,0 UV-I 0 W/m 7,5 C 9,9 C 3,2 km/h (1 Bft)
07.04.2020 05:00 10,1 C 9,8 C 10,1 C 86 % 1029,5 hPa 0,0 l/m 0,8 km/h (0 Bft) W-NW 285 0 min 0 min 0,000 mm 0,0 UV-I 0 W/m 7,9 C 10,1 C 3,2 km/h (1 Bft)
07.04.2020 04:45 10,0 C 9,8 C 10,0 C 85 % 1029,5 hPa 0,0 l/m 1,2 km/h (1 Bft) W-NW 285 0 min 0 min 0,000 mm 0,0 UV-I 0 W/m 7,6 C 10,0 C 3,2 km/h (1 Bft)
07.04.2020 04:30 9,9 C 9,9 C 10,6 C 84 % 1029,4 hPa 0,0 l/m 0,8 km/h (0 Bft) W-NW 285 0 min 0 min 0,000 mm 0,0 UV-I 0 W/m 7,3 C 9,9 C 3,2 km/h (1 Bft)
07.04.2020 04:15 10,6 C 10,6 C 11,5 C 83 % 1029,3 hPa 0,0 l/m 0,9 km/h (0 Bft) W-NW 285 0 min 0 min 0,000 mm 0,0 UV-I 0 W/m 7,8 C 10,6 C 3,2 km/h (1 Bft)
07.04.2020 04:00 11,5 C 11,5 C 12,4 C 81 % 1029,1 hPa 0,0 l/m 0,4 km/h (0 Bft) W-NW 285 0 min 0 min 0,026 mm 0,0 UV-I 0 W/m 8,4 C 11,5 C 1,6 km/h (1 Bft)
_ Min-Zeit 06:30 06:30 06:45 17:30 03:30 - 20:15 - - - - - - - 03:00 06:30 04:00
Minimum _ 8,3 C 8,3 C 8,6 C 46 % 1027,7 hPa - 0,1 km/h (0 Bft) - - - - - - - 6,0 C 8,3 C 1,6 km/h (1 Bft)
_ Max-Zeit 16:45 16:45 16:45 06:45 11:30 04:00 16:00 - - 08:15 04:00 14:15 13:45 13:45 12:45 16:45 13:30
Maximum _ 21,1 C 20,8 C 21,1 C 90 % 1032,2 hPa 0,0 l/m 7,8 km/h
N (2 Bft)
- - 15 min 0 min 0,407 mm 4,4 UV-I 687 W/m 10,9 C 21,1 C 17,7 km/h
O-NO (3 Bft)
Durchschnitt _ 14,0 C 13,7 C 14,3 C 71 % 1029,8 hPa #0,0 l/m 3,4 km/h (1 Bft) W-SW - #0 min. #0 min. #0,076 mm 0,0 UV-I 0 W/m 8,4 C 14,0 C 7,8 km/h (2 Bft)